Time,TemperatureF,DewpointF,PressureIn,WindDirection,WindDirectionDegrees,WindSpeedMPH,WindSpeedGustMPH,Humidity,HourlyPrecipIn,Conditions,Clouds,dailyrainin,SoftwareType,DateUTC
2013-08-17 00:01:00,59.5,54.4,30.19,NNE,22,0.0,0.0,83,0.00,CLR,,0.00,WeatherDisplay:10.37,2013-08-17 04:01:00,
2013-08-17 00:06:00,59.2,54.0,30.20,NNE,22,0.0,0.0,83,0.00,CLR,,0.00,WeatherDisplay:10.37,2013-08-17 04:06:00,
2013-08-17 00:11:00,58.8,54.0,30.19,NNE,22,0.0,0.0,84,0.00,CLR,,0.00,WeatherDisplay:10.37,2013-08-17 04:11:00,
2013-08-17 00:16:00,58.8,54.0,30.20,NNE,22,0.0,0.0,84,0.00,CLR,,0.00,WeatherDisplay:10.37,2013-08-17 04:16:00,
2013-08-17 00:21:00,58.8,54.0,30.20,NNE,22,0.0,0.0,84,0.00,CLR,,0.00,WeatherDisplay:10.37,2013-08-17 04:21:00,
2013-08-17 00:26:00,58.8,54.0,30.19,NNE,22,0.0,0.0,84,0.00,CLR,,0.00,WeatherDisplay:10.37,2013-08-17 04:26:00,
2013-08-17 00:31:00,58.8,54.0,30.19,NNE,22,0.0,0.0,84,0.00,CLR,,0.00,WeatherDisplay:10.37,2013-08-17 04:31:00,
2013-08-17 00:36:00,58.8,54.0,30.19,NNE,22,0.0,0.0,84,0.00,CLR,,0.00,WeatherDisplay:10.37,2013-08-17 04:36:00,
2013-08-17 00:41:00,58.8,54.0,30.19,NNE,22,0.0,0.0,84,0.00,CLR,,0.00,WeatherDisplay:10.37,2013-08-17 04:41:00,
2013-08-17 00:46:00,58.8,54.0,30.19,NNE,22,0.0,0.0,84,0.00,CLR,,0.00,WeatherDisplay:10.37,2013-08-17 04:46:00,
2013-08-17 00:51:00,58.8,54.0,30.19,NNE,22,0.0,0.0,84,0.00,CLR,,0.00,WeatherDisplay:10.37,2013-08-17 04:51:00,
2013-08-17 00:56:00,58.8,54.0,30.19,NNE,22,0.0,0.0,84,0.00,CLR,,0.00,WeatherDisplay:10.37,2013-08-17 04:56:00,
2013-08-17 01:01:00,58.8,54.0,30.19,NNE,22,0.0,0.0,84,0.00,CLR,,0.00,WeatherDisplay:10.37,2013-08-17 05:01:00,
2013-08-17 01:06:00,58.8,54.0,30.19,NNE,22,0.0,0.0,84,0.00,CLR,,0.00,WeatherDisplay:10.37,2013-08-17 05:06:00,
2013-08-17 01:11:00,58.8,54.0,30.19,NNE,22,0.0,0.0,84,0.00,CLR,,0.00,WeatherDisplay:10.37,2013-08-17 05:11:00,
2013-08-17 01:16:00,59.4,54.5,30.19,NNE,22,0.0,0.0,84,0.00,CLR,,0.00,WeatherDisplay:10.37,2013-08-17 05:16:00,
2013-08-17 01:21:00,59.5,54.7,30.19,NNE,22,0.0,0.0,84,0.00,CLR,,0.00,WeatherDisplay:10.37,2013-08-17 05:21:00,
2013-08-17 01:26:00,59.5,54.7,30.19,NNE,22,0.0,0.0,84,0.00,CLR,,0.00,WeatherDisplay:10.37,2013-08-17 05:26:00,
2013-08-17 01:31:00,59.5,54.7,30.20,NNE,22,0.0,0.0,84,0.00,CLR,,0.00,WeatherDisplay:10.37,2013-08-17 05:31:00,
2013-08-17 01:36:00,59.5,54.4,30.19,NNE,22,0.0,0.0,83,0.00,CLR,,0.00,WeatherDisplay:10.37,2013-08-17 05:36:00,
2013-08-17 01:41:00,59.5,54.4,30.19,NNE,22,0.0,0.0,83,0.00,CLR,,0.00,WeatherDisplay:10.37,2013-08-17 05:41:00,
2013-08-17 01:46:00,59.5,54.4,30.19,NNE,22,0.0,0.0,83,0.00,CLR,,0.00,WeatherDisplay:10.37,2013-08-17 05:46:00,
2013-08-17 01:51:00,59.5,54.4,30.19,NNE,22,0.0,0.0,83,0.00,CLR,,0.00,WeatherDisplay:10.37,2013-08-17 05:51:00,
2013-08-17 01:57:00,59.5,54.4,30.19,NNE,22,0.0,0.0,83,0.00,CLR,,0.00,WeatherDisplay:10.37,2013-08-17 05:57:00,
2013-08-17 02:02:00,59.5,54.4,30.20,NNE,22,0.0,0.0,83,0.00,CLR,,0.00,WeatherDisplay:10.37,2013-08-17 06:02:00,
2013-08-17 02:07:00,59.5,54.4,30.19,NNE,22,0.0,0.0,83,0.00,CLR,,0.00,WeatherDisplay:10.37,2013-08-17 06:07:00,
2013-08-17 02:12:00,59.5,54.4,30.19,NNE,22,0.0,0.0,83,0.00,CLR,,0.00,WeatherDisplay:10.37,2013-08-17 06:12:00,
2013-08-17 02:17:00,59.5,54.0,30.20,NNE,22,0.0,0.0,82,0.00,CLR,,0.00,WeatherDisplay:10.37,2013-08-17 06:17:00,
2013-08-17 02:22:00,59.5,54.0,30.20,NNE,22,0.0,0.0,82,0.00,CLR,,0.00,WeatherDisplay:10.37,2013-08-17 06:22:00,
2013-08-17 02:27:00,59.5,54.0,30.20,NNE,22,0.0,0.0,82,0.00,CLR,,0.00,WeatherDisplay:10.37,2013-08-17 06:27:00,
2013-08-17 02:32:00,59.5,54.0,30.19,NNE,22,0.0,0.0,82,0.00,CLR,,0.00,WeatherDisplay:10.37,2013-08-17 06:32:00,
2013-08-17 02:37:00,59.4,53.9,30.19,NNE,22,0.0,0.0,82,0.00,CLR,,0.00,WeatherDisplay:10.37,2013-08-17 06:37:00,
2013-08-17 02:42:00,59.2,54.0,30.19,NNE,22,0.0,0.0,83,0.00,CLR,,0.00,WeatherDisplay:10.37,2013-08-17 06:42:00,
2013-08-17 02:47:00,59.0,53.8,30.19,NNE,22,0.0,0.0,83,0.00,CLR,,0.00,WeatherDisplay:10.37,2013-08-17 06:47:00,
2013-08-17 02:52:00,58.8,53.7,30.19,NNE,22,0.0,0.0,83,0.00,CLR,,0.00,WeatherDisplay:10.37,2013-08-17 06:52:00,
2013-08-17 02:57:00,58.8,53.7,30.19,NNE,22,0.0,0.0,83,0.00,CLR,,0.00,WeatherDisplay:10.37,2013-08-17 06:57:00,
2013-08-17 03:02:00,58.8,53.7,30.19,NNE,22,0.0,0.0,83,0.00,CLR,,0.00,WeatherDisplay:10.37,2013-08-17 07:02:00,
2013-08-17 03:07:00,58.8,53.7,30.20,NNE,22,0.0,0.0,83,0.00,CLR,,0.00,WeatherDisplay:10.37,2013-08-17 07:07:00,
2013-08-17 03:12:00,58.8,53.7,30.20,NNE,22,0.0,0.0,83,0.00,CLR,,0.00,WeatherDisplay:10.37,2013-08-17 07:12:00,
2013-08-17 03:17:00,58.6,53.5,30.21,NNE,22,0.0,0.0,83,0.00,CLR,,0.00,WeatherDisplay:10.37,2013-08-17 07:17:00,
2013-08-17 03:22:00,58.6,53.8,30.20,NNE,22,0.0,0.0,84,0.00,CLR,,0.00,WeatherDisplay:10.37,2013-08-17 07:22:00,
2013-08-17 03:27:00,58.5,53.6,30.20,NNE,22,0.0,0.0,84,0.00,CLR,,0.00,WeatherDisplay:10.37,2013-08-17 07:27:00,
2013-08-17 03:32:00,58.5,53.6,30.20,NNE,22,0.0,0.0,84,0.00,CLR,,0.00,WeatherDisplay:10.37,2013-08-17 07:32:00,
2013-08-17 03:37:00,58.3,53.5,30.20,NNE,22,0.0,0.0,84,0.00,CLR,,0.00,WeatherDisplay:10.37,2013-08-17 07:37:00,
2013-08-17 03:42:00,58.3,53.5,30.20,NNE,22,0.0,0.0,84,0.00,CLR,,0.00,WeatherDisplay:10.37,2013-08-17 07:42:00,
2013-08-17 03:47:00,58.3,53.5,30.20,NNE,22,0.0,0.0,84,0.00,CLR,,0.00,WeatherDisplay:10.37,2013-08-17 07:47:00,
2013-08-17 03:52:00,58.3,53.5,30.20,NNE,22,0.0,0.0,84,0.00,CLR,,0.00,WeatherDisplay:10.37,2013-08-17 07:52:00,
2013-08-17 03:57:00,58.1,53.6,30.21,NNE,22,0.0,0.0,85,0.00,CLR,,0.00,WeatherDisplay:10.37,2013-08-17 07:57:00,
2013-08-17 04:02:00,58.1,53.6,30.20,NNE,22,0.0,0.0,85,0.00,CLR,,0.00,WeatherDisplay:10.37,2013-08-17 08:02:00,
2013-08-17 04:07:00,57.9,53.4,30.21,NNE,22,0.0,0.0,85,0.00,CLR,,0.00,WeatherDisplay:10.37,2013-08-17 08:07:00,
2013-08-17 04:12:00,57.9,53.4,30.21,NNE,22,0.0,0.0,85,0.00,CLR,,0.00,WeatherDisplay:10.37,2013-08-17 08:12:00,
2013-08-17 04:17:00,57.9,53.4,30.21,NNE,22,0.0,0.0,85,0.00,CLR,,0.00,WeatherDisplay:10.37,2013-08-17 08:17:00,
2013-08-17 04:22:00,57.7,53.3,30.21,NNE,22,0.0,0.0,85,0.00,CLR,,0.00,WeatherDisplay:10.37,2013-08-17 08:22:00,
2013-08-17 04:27:00,57.6,53.1,30.20,NNE,22,0.0,0.0,85,0.00,CLR,,0.00,WeatherDisplay:10.37,2013-08-17 08:27:00,
2013-08-17 04:32:00,57.6,53.1,30.21,NNE,22,0.0,0.0,85,0.00,CLR,,0.00,WeatherDisplay:10.37,2013-08-17 08:32:00,
2013-08-17 04:37:00,57.4,52.9,30.21,NNE,22,0.0,0.0,85,0.00,CLR,,0.00,WeatherDisplay:10.37,2013-08-17 08:37:00,
2013-08-17 04:42:00,57.4,53.2,30.21,NNE,22,0.0,0.0,86,0.00,CLR,,0.00,WeatherDisplay:10.37,2013-08-17 08:42:00,
2013-08-17 04:47:00,57.4,53.2,30.21,NNE,22,0.0,0.0,86,0.00,CLR,,0.00,WeatherDisplay:10.37,2013-08-17 08:47:00,
2013-08-17 04:52:00,57.4,53.2,30.21,NNE,22,0.0,0.0,86,0.00,CLR,,0.00,WeatherDisplay:10.37,2013-08-17 08:52:00,
2013-08-17 04:57:00,57.4,53.2,30.21,NNE,22,0.0,0.0,86,0.00,CLR,,0.00,WeatherDisplay:10.37,2013-08-17 08:57:00,
2013-08-17 05:02:00,57.2,53.0,30.21,NNE,22,0.0,0.0,86,0.00,CLR,,0.00,WeatherDisplay:10.37,2013-08-17 09:02:00,
2013-08-17 05:07:00,57.0,52.9,30.21,NNE,22,0.0,0.0,86,0.00,CLR,,0.00,WeatherDisplay:10.37,2013-08-17 09:07:00,
2013-08-17 05:12:00,57.0,52.9,30.21,NNE,22,0.0,0.0,86,0.00,CLR,,0.00,WeatherDisplay:10.37,2013-08-17 09:12:00,
2013-08-17 05:17:00,57.0,52.9,30.21,NNE,22,0.0,0.0,86,0.00,CLR,,0.00,WeatherDisplay:10.37,2013-08-17 09:17:00,
2013-08-17 05:22:00,56.8,52.7,30.21,NNE,22,0.0,0.0,86,0.00,CLR,,0.00,WeatherDisplay:10.37,2013-08-17 09:22:00,
2013-08-17 05:27:00,56.8,52.7,30.21,NNE,22,0.0,0.0,86,0.00,CLR,,0.00,WeatherDisplay:10.37,2013-08-17 09:27:00,
2013-08-17 05:32:00,56.7,52.5,30.21,NNE,22,0.0,0.0,86,0.00,CLR,,0.00,WeatherDisplay:10.37,2013-08-17 09:32:00,
2013-08-17 05:37:00,56.5,52.3,30.21,NNE,22,0.0,0.0,86,0.00,CLR,,0.00,WeatherDisplay:10.37,2013-08-17 09:37:00,
2013-08-17 05:42:00,56.5,52.7,30.21,NNE,22,0.0,0.0,87,0.00,CLR,,0.00,WeatherDisplay:10.37,2013-08-17 09:42:00,
2013-08-17 05:47:00,56.5,52.7,30.21,NNE,22,0.0,0.0,87,0.00,CLR,,0.00,WeatherDisplay:10.37,2013-08-17 09:47:00,
2013-08-17 05:52:00,56.3,52.5,30.21,NNE,22,0.0,0.0,87,0.00,CLR,,0.00,WeatherDisplay:10.37,2013-08-17 09:52:00,
2013-08-17 05:57:00,56.1,52.3,30.21,NNE,22,0.0,0.0,87,0.00,CLR,,0.00,WeatherDisplay:10.37,2013-08-17 09:57:00,
2013-08-17 06:02:00,56.1,52.3,30.21,NNE,22,0.0,0.0,87,0.00,CLR,,0.00,WeatherDisplay:10.37,2013-08-17 10:02:00,
2013-08-17 06:07:00,55.9,52.1,30.21,NNE,22,0.0,0.0,87,0.00,CLR,,0.00,WeatherDisplay:10.37,2013-08-17 10:07:00,
2013-08-17 06:12:00,55.9,52.1,30.21,NNE,22,0.0,0.0,87,0.00,CLR,,0.00,WeatherDisplay:10.37,2013-08-17 10:12:00,
2013-08-17 06:17:00,55.9,52.1,30.21,NNE,22,0.0,0.0,87,0.00,CLR,,0.00,WeatherDisplay:10.37,2013-08-17 10:17:00,
2013-08-17 06:22:00,55.8,51.9,30.21,NNE,22,0.0,0.0,87,0.00,CLR,,0.00,WeatherDisplay:10.37,2013-08-17 10:22:00,
2013-08-17 06:27:00,55.8,51.9,30.22,NNE,22,0.0,0.0,87,0.00,CLR,,0.00,WeatherDisplay:10.37,2013-08-17 10:27:00,
2013-08-17 06:32:00,55.8,51.9,30.22,NNE,22,0.0,0.0,87,0.00,CLR,,0.00,WeatherDisplay:10.37,2013-08-17 10:32:00,
2013-08-17 06:37:00,55.6,51.8,30.22,NNE,22,0.0,0.0,87,0.00,CLR,,0.00,WeatherDisplay:10.37,2013-08-17 10:37:00,
2013-08-17 06:42:00,55.6,51.8,30.22,NNE,22,0.0,0.0,87,0.00,CLR,,0.00,WeatherDisplay:10.37,2013-08-17 10:42:00,
2013-08-17 06:47:00,55.4,51.6,30.22,NNE,22,0.0,0.0,87,0.00,CLR,,0.00,WeatherDisplay:10.37,2013-08-17 10:47:00,
2013-08-17 06:52:00,55.2,51.7,30.22,NNE,22,0.0,0.0,88,0.00,CLR,,0.00,WeatherDisplay:10.37,2013-08-17 10:52:00,
2013-08-17 06:57:00,55.4,51.9,30.23,NNE,22,0.0,0.0,88,0.00,CLR,,0.00,WeatherDisplay:10.37,2013-08-17 10:57:00,
2013-08-17 07:02:00,55.4,51.9,30.23,NNE,22,0.0,0.0,88,0.00,CLR,,0.00,WeatherDisplay:10.37,2013-08-17 11:02:00,
2013-08-17 07:07:00,55.6,52.1,30.23,NNE,22,0.0,0.0,88,0.00,CLR,,0.00,WeatherDisplay:10.37,2013-08-17 11:07:00,
2013-08-17 07:12:00,55.6,52.1,30.23,NNE,22,0.0,0.0,88,0.00,CLR,,0.00,WeatherDisplay:10.37,2013-08-17 11:12:00,
2013-08-17 07:17:00,55.6,52.1,30.23,NNE,22,0.0,0.0,88,0.00,CLR,,0.00,WeatherDisplay:10.37,2013-08-17 11:17:00,
2013-08-17 07:22:00,55.6,52.1,30.23,NNE,22,0.0,0.0,88,0.00,CLR,,0.00,WeatherDisplay:10.37,2013-08-17 11:22:00,
2013-08-17 07:27:00,55.8,52.3,30.23,NNE,22,0.0,0.0,88,0.00,CLR,,0.00,WeatherDisplay:10.37,2013-08-17 11:27:00,
2013-08-17 07:32:00,55.9,52.4,30.23,NNE,22,0.0,0.0,88,0.00,CLR,,0.00,WeatherDisplay:10.37,2013-08-17 11:32:00,
2013-08-17 07:37:00,56.1,52.6,30.22,NNE,22,0.0,0.0,88,0.00,CLR,,0.00,WeatherDisplay:10.37,2013-08-17 11:37:00,
2013-08-17 07:42:00,56.1,52.6,30.23,NNE,22,0.0,0.0,88,0.00,CLR,,0.00,WeatherDisplay:10.37,2013-08-17 11:42:00,
2013-08-17 07:47:00,56.3,52.8,30.23,NNE,22,0.0,0.0,88,0.00,CLR,,0.00,WeatherDisplay:10.37,2013-08-17 11:47:00,
2013-08-17 07:52:00,56.5,53.0,30.23,NNE,22,0.0,0.0,88,0.00,CLR,,0.00,WeatherDisplay:10.37,2013-08-17 11:52:00,
2013-08-17 07:57:00,56.7,53.1,30.22,NNE,22,0.0,0.0,88,0.00,CLR,,0.00,WeatherDisplay:10.37,2013-08-17 11:57:00,
2013-08-17 08:02:00,56.8,53.3,30.23,NNE,22,0.0,0.0,88,0.00,CLR,,0.00,WeatherDisplay:10.37,2013-08-17 12:02:00,
2013-08-17 08:06:00,56.8,53.3,30.23,NNE,22,0.0,0.0,88,0.00,CLR,,0.00,WeatherDisplay:10.37,2013-08-17 12:06:00,
2013-08-17 08:11:00,57.0,53.5,30.23,NNE,22,0.0,0.0,88,0.00,CLR,,0.00,WeatherDisplay:10.37,2013-08-17 12:11:00,
2013-08-17 08:16:00,57.4,53.9,30.23,NNE,22,0.0,0.0,88,0.00,CLR,,0.00,WeatherDisplay:10.37,2013-08-17 12:16:00,
2013-08-17 08:21:00,57.6,53.7,30.22,NNE,22,0.0,0.0,87,0.00,CLR,,0.00,WeatherDisplay:10.37,2013-08-17 12:21:00,
2013-08-17 08:26:00,57.9,54.4,30.23,NNE,22,0.0,0.0,88,0.00,CLR,,0.00,WeatherDisplay:10.37,2013-08-17 12:26:00,
2013-08-17 08:31:00,58.3,54.4,30.23,NNE,22,0.0,0.0,87,0.00,CLR,,0.00,WeatherDisplay:10.37,2013-08-17 12:31:00,
2013-08-17 08:36:00,58.6,54.8,30.23,NNE,22,0.0,0.0,87,0.00,CLR,,0.00,WeatherDisplay:10.37,2013-08-17 12:36:00,
2013-08-17 08:41:00,58.8,55.0,30.23,NNE,22,0.0,0.0,87,0.00,CLR,,0.00,WeatherDisplay:10.37,2013-08-17 12:41:00,
2013-08-17 08:46:00,59.4,55.5,30.23,NNE,22,0.0,0.0,87,0.00,CLR,,0.00,WeatherDisplay:10.37,2013-08-17 12:46:00,
2013-08-17 08:51:00,59.4,55.2,30.23,NNE,22,0.0,0.0,86,0.00,CLR,,0.00,WeatherDisplay:10.37,2013-08-17 12:51:00,
2013-08-17 08:56:00,59.9,55.7,30.23,NNE,22,0.0,0.0,86,0.00,CLR,,0.00,WeatherDisplay:10.37,2013-08-17 12:56:00,
2013-08-17 09:01:00,60.4,55.9,30.23,NNE,22,0.0,0.0,85,0.00,CLR,,0.00,WeatherDisplay:10.37,2013-08-17 13:01:00,
2013-08-17 09:06:00,61.0,56.1,30.23,NNE,22,0.0,0.0,84,0.00,CLR,,0.00,WeatherDisplay:10.37,2013-08-17 13:06:00,
2013-08-17 09:11:00,61.3,56.1,30.23,NNE,22,0.0,0.0,83,0.00,CLR,,0.00,WeatherDisplay:10.37,2013-08-17 13:11:00,
2013-08-17 09:16:00,61.7,55.8,30.22,NNE,22,0.0,0.0,81,0.00,CLR,,0.00,WeatherDisplay:10.37,2013-08-17 13:16:00,
2013-08-17 09:21:00,62.2,56.3,30.22,NNE,22,0.0,0.0,81,0.00,CLR,,0.00,WeatherDisplay:10.37,2013-08-17 13:21:00,
2013-08-17 09:26:00,62.4,56.2,30.23,NNE,22,0.0,0.0,80,0.00,CLR,,0.00,WeatherDisplay:10.37,2013-08-17 13:26:00,
2013-08-17 09:31:00,63.0,56.3,30.23,NNE,22,0.0,0.0,79,0.00,CLR,,0.00,WeatherDisplay:10.37,2013-08-17 13:31:00,
2013-08-17 09:36:00,64.0,57.0,30.23,NNE,22,0.0,0.0,78,0.00,CLR,,0.00,WeatherDisplay:10.37,2013-08-17 13:36:00,
2013-08-17 09:41:00,64.8,57.4,30.23,NNE,22,0.0,0.0,77,0.00,CLR,,0.00,WeatherDisplay:10.37,2013-08-17 13:41:00,
2013-08-17 09:46:00,65.1,57.4,30.22,NNE,22,0.0,0.0,76,0.00,CLR,,0.00,WeatherDisplay:10.37,2013-08-17 13:46:00,
2013-08-17 09:51:00,64.9,56.8,30.23,NNE,22,0.0,0.0,75,0.00,CLR,,0.00,WeatherDisplay:10.37,2013-08-17 13:51:00,
2013-08-17 09:56:00,64.6,56.5,30.23,NNE,22,0.0,0.0,75,0.00,CLR,,0.00,WeatherDisplay:10.37,2013-08-17 13:56:00,
2013-08-17 10:01:00,64.2,56.1,30.23,NNE,22,0.0,0.0,75,0.00,CLR,,0.00,WeatherDisplay:10.37,2013-08-17 14:01:00,
2013-08-17 10:06:00,64.2,55.8,30.24,NNE,22,0.0,0.0,74,0.00,CLR,,0.00,WeatherDisplay:10.37,2013-08-17 14:06:00,
2013-08-17 10:11:00,64.2,55.8,30.23,NNE,22,0.0,0.0,74,0.00,CLR,,0.00,WeatherDisplay:10.37,2013-08-17 14:11:00,
2013-08-17 10:16:00,64.2,56.1,30.23,NNE,22,0.0,0.0,75,0.00,CLR,,0.00,WeatherDisplay:10.37,2013-08-17 14:16:00,
2013-08-17 10:21:00,64.2,55.8,30.24,NNE,22,0.0,0.0,74,0.00,CLR,,0.00,WeatherDisplay:10.37,2013-08-17 14:21:00,
2013-08-17 10:26:00,64.2,55.8,30.24,NNE,22,0.0,0.0,74,0.00,CLR,,0.00,WeatherDisplay:10.37,2013-08-17 14:26:00,
2013-08-17 10:31:00,64.6,56.1,30.25,NNE,22,0.0,0.0,74,0.00,CLR,,0.00,WeatherDisplay:10.37,2013-08-17 14:31:00,
2013-08-17 10:36:00,64.8,56.3,30.25,NNE,22,0.0,0.0,74,0.00,CLR,,0.00,WeatherDisplay:10.37,2013-08-17 14:36:00,
2013-08-17 10:41:00,65.1,56.6,30.25,NNE,22,0.0,0.0,74,0.00,CLR,,0.00,WeatherDisplay:10.37,2013-08-17 14:41:00,
2013-08-17 10:46:00,65.5,56.6,30.25,NNE,22,0.0,0.0,73,0.00,CLR,,0.00,WeatherDisplay:10.37,2013-08-17 14:46:00,
2013-08-17 10:51:00,65.7,56.0,30.25,NNE,22,0.0,0.0,71,0.00,CLR,,0.00,WeatherDisplay:10.37,2013-08-17 14:51:00,
2013-08-17 10:56:00,65.8,55.8,30.25,NNE,22,0.0,0.0,70,0.00,CLR,,0.00,WeatherDisplay:10.37,2013-08-17 14:56:00,
2013-08-17 11:01:00,65.7,55.2,30.25,NNE,22,0.0,0.0,69,0.00,CLR,,0.00,WeatherDisplay:10.37,2013-08-17 15:01:00,
2013-08-17 11:06:00,65.7,55.2,30.25,NNE,22,0.0,0.0,69,0.00,CLR,,0.00,WeatherDisplay:10.37,2013-08-17 15:06:00,
2013-08-17 11:11:00,65.8,55.4,30.24,NNE,22,0.0,0.0,69,0.00,CLR,,0.00,WeatherDisplay:10.37,2013-08-17 15:11:00,
2013-08-17 11:16:00,66.0,55.6,30.24,NNE,22,0.0,0.0,69,0.00,CLR,,0.00,WeatherDisplay:10.37,2013-08-17 15:16:00,
2013-08-17 11:21:00,66.0,55.6,30.25,NNE,22,0.0,0.0,69,0.00,CLR,,0.00,WeatherDisplay:10.37,2013-08-17 15:21:00,
2013-08-17 11:26:00,66.0,55.2,30.25,NNE,22,0.0,0.0,68,0.00,CLR,,0.00,WeatherDisplay:10.37,2013-08-17 15:26:00,
2013-08-17 11:31:00,66.4,55.9,30.25,NNE,22,0.0,0.0,69,0.00,CLR,,0.00,WeatherDisplay:10.37,2013-08-17 15:31:00,
2013-08-17 11:36:00,66.7,56.2,30.24,NNE,22,0.0,0.0,69,0.00,CLR,,0.00,WeatherDisplay:10.37,2013-08-17 15:36:00,
2013-08-17 11:41:00,67.1,56.2,30.25,NNE,22,0.0,0.0,68,0.00,CLR,,0.00,WeatherDisplay:10.37,2013-08-17 15:41:00,
2013-08-17 11:46:00,67.3,56.8,30.24,NNE,22,0.0,0.0,69,0.00,CLR,,0.00,WeatherDisplay:10.37,2013-08-17 15:46:00,
2013-08-17 11:51:00,67.8,57.3,30.24,NNE,22,0.0,0.0,69,0.00,CLR,,0.00,WeatherDisplay:10.37,2013-08-17 15:51:00,
2013-08-17 11:56:00,68.2,57.2,30.24,NNE,22,0.0,0.0,68,0.00,CLR,,0.00,WeatherDisplay:10.37,2013-08-17 15:56:00,
2013-08-17 12:01:00,68.5,57.6,30.24,NNE,22,0.0,0.0,68,0.00,CLR,,0.00,WeatherDisplay:10.37,2013-08-17 16:01:00,
2013-08-17 12:06:00,68.5,57.6,30.24,NNE,22,0.0,0.0,68,0.00,CLR,,0.00,WeatherDisplay:10.37,2013-08-17 16:06:00,
2013-08-17 12:11:00,68.7,57.7,30.24,NNE,22,0.0,0.0,68,0.00,CLR,,0.00,WeatherDisplay:10.37,2013-08-17 16:11:00,
2013-08-17 12:16:00,68.7,57.3,30.24,NNE,22,0.0,0.0,67,0.00,CLR,,0.00,WeatherDisplay:10.37,2013-08-17 16:16:00,
2013-08-17 12:21:00,68.5,57.1,30.24,NNE,22,0.0,0.0,67,0.00,CLR,,0.00,WeatherDisplay:10.37,2013-08-17 16:21:00,
2013-08-17 12:26:00,68.4,57.0,30.23,NNE,22,0.0,0.0,67,0.00,CLR,,0.00,WeatherDisplay:10.37,2013-08-17 16:26:00,
2013-08-17 12:31:00,68.7,57.3,30.24,NNE,22,0.0,0.0,67,0.00,CLR,,0.00,WeatherDisplay:10.37,2013-08-17 16:31:00,
2013-08-17 12:36:00,68.7,56.9,30.23,NNE,22,0.0,0.0,66,0.00,CLR,,0.00,WeatherDisplay:10.37,2013-08-17 16:36:00,
2013-08-17 12:41:00,68.9,57.1,30.23,NNE,22,0.0,0.0,66,0.00,CLR,,0.00,WeatherDisplay:10.37,2013-08-17 16:41:00,
2013-08-17 12:46:00,69.1,57.7,30.23,NNE,22,0.0,0.0,67,0.00,CLR,,0.00,WeatherDisplay:10.37,2013-08-17 16:46:00,
2013-08-17 12:51:00,69.1,57.2,30.23,NNE,22,0.0,0.0,66,0.00,CLR,,0.00,WeatherDisplay:10.37,2013-08-17 16:51:00,
2013-08-17 12:56:00,69.4,57.6,30.22,NNE,22,0.0,0.0,66,0.00,CLR,,0.00,WeatherDisplay:10.37,2013-08-17 16:56:00,
2013-08-17 13:01:00,69.6,57.8,30.22,NNE,22,0.0,0.0,66,0.00,CLR,,0.00,WeatherDisplay:10.37,2013-08-17 17:01:00,
2013-08-17 13:06:00,70.0,58.5,30.23,NNE,22,0.0,0.0,67,0.00,CLR,,0.00,WeatherDisplay:10.37,2013-08-17 17:06:00,
2013-08-17 13:11:00,70.5,58.6,30.23,NNE,22,0.0,0.0,66,0.00,CLR,,0.00,WeatherDisplay:10.37,2013-08-17 17:11:00,
2013-08-17 13:16:00,70.5,58.6,30.23,NNE,22,0.0,0.0,66,0.00,CLR,,0.00,WeatherDisplay:10.37,2013-08-17 17:16:00,
2013-08-17 13:21:00,70.9,58.5,30.22,NNE,22,0.0,0.0,65,0.00,CLR,,0.00,WeatherDisplay:10.37,2013-08-17 17:21:00,
2013-08-17 13:26:00,71.2,58.9,30.22,NNE,22,0.0,0.0,65,0.00,CLR,,0.00,WeatherDisplay:10.37,2013-08-17 17:26:00,
2013-08-17 13:31:00,71.4,58.6,30.23,NNE,22,0.0,0.0,64,0.00,CLR,,0.00,WeatherDisplay:10.37,2013-08-17 17:31:00,
2013-08-17 13:36:00,71.4,58.6,30.22,NNE,22,0.0,0.0,64,0.00,CLR,,0.00,WeatherDisplay:10.37,2013-08-17 17:36:00,
2013-08-17 13:41:00,71.2,58.4,30.22,NNE,22,0.0,0.0,64,0.00,CLR,,0.00,WeatherDisplay:10.37,2013-08-17 17:41:00,
2013-08-17 13:46:00,71.2,58.4,30.21,NNE,22,0.0,0.0,64,0.00,CLR,,0.00,WeatherDisplay:10.37,2013-08-17 17:46:00,
2013-08-17 13:51:00,71.1,58.3,30.21,NNE,22,0.0,0.0,64,0.00,CLR,,0.00,WeatherDisplay:10.37,2013-08-17 17:51:00,
2013-08-17 13:56:00,70.9,58.1,30.21,NNE,22,0.0,0.0,64,0.00,CLR,,0.00,WeatherDisplay:10.37,2013-08-17 17:56:00,
2013-08-17 14:01:00,70.9,58.5,30.21,NNE,22,0.0,0.0,65,0.00,CLR,,0.00,WeatherDisplay:10.37,2013-08-17 18:01:00,
2013-08-17 14:06:00,70.5,58.2,30.21,NNE,22,0.0,0.0,65,0.00,CLR,,0.00,WeatherDisplay:10.37,2013-08-17 18:06:00,
2013-08-17 14:11:00,70.7,58.4,30.21,NNE,22,0.0,0.0,65,0.00,CLR,,0.00,WeatherDisplay:10.37,2013-08-17 18:11:00,
2013-08-17 14:16:00,70.7,58.4,30.21,NNE,22,0.0,0.0,65,0.00,CLR,,0.00,WeatherDisplay:10.37,2013-08-17 18:16:00,
2013-08-17 14:21:00,70.7,58.4,30.21,NNE,22,0.0,0.0,65,0.00,CLR,,0.00,WeatherDisplay:10.37,2013-08-17 18:21:00,
2013-08-17 14:26:00,70.7,58.4,30.21,NNE,22,0.0,0.0,65,0.00,CLR,,0.00,WeatherDisplay:10.37,2013-08-17 18:26:00,
2013-08-17 14:31:00,70.5,58.2,30.21,NNE,22,0.0,0.0,65,0.00,CLR,,0.00,WeatherDisplay:10.37,2013-08-17 18:31:00,
2013-08-17 14:36:00,70.3,58.0,30.21,NNE,22,0.0,0.0,65,0.00,CLR,,0.00,WeatherDisplay:10.37,2013-08-17 18:36:00,
2013-08-17 14:41:00,70.0,58.1,30.21,NNE,22,0.0,0.0,66,0.00,CLR,,0.00,WeatherDisplay:10.37,2013-08-17 18:41:00,
2013-08-17 14:46:00,69.6,57.8,30.21,NNE,22,0.0,0.0,66,0.00,CLR,,0.00,WeatherDisplay:10.37,2013-08-17 18:46:00,
2013-08-17 14:51:00,69.4,58.0,30.21,NNE,22,0.0,0.0,67,0.00,CLR,,0.00,WeatherDisplay:10.37,2013-08-17 18:51:00,
2013-08-17 14:56:00,69.1,58.1,30.21,NNE,22,0.0,0.0,68,0.00,CLR,,0.00,WeatherDisplay:10.37,2013-08-17 18:56:00,
2013-08-17 15:01:00,68.9,57.9,30.21,NNE,22,0.0,0.0,68,0.00,CLR,,0.00,WeatherDisplay:10.37,2013-08-17 19:01:00,
2013-08-17 15:06:00,68.7,57.7,30.21,NNE,22,0.0,0.0,68,0.00,CLR,,0.00,WeatherDisplay:10.37,2013-08-17 19:06:00,
2013-08-17 15:11:00,68.5,58.0,30.21,NNE,22,0.0,0.0,69,0.00,CLR,,0.00,WeatherDisplay:10.37,2013-08-17 19:11:00,
2013-08-17 15:16:00,68.4,57.8,30.21,NNE,22,0.0,0.0,69,0.00,CLR,,0.00,WeatherDisplay:10.37,2013-08-17 19:16:00,
2013-08-17 15:21:00,68.2,57.6,30.20,NNE,22,0.0,0.0,69,0.00,CLR,,0.00,WeatherDisplay:10.37,2013-08-17 19:21:00,
2013-08-17 15:26:00,67.8,57.7,30.21,NNE,22,0.0,0.0,70,0.00,CLR,,0.00,WeatherDisplay:10.37,2013-08-17 19:26:00,
2013-08-17 15:31:00,67.8,58.1,30.20,NNE,22,0.0,0.0,71,0.00,CLR,,0.00,WeatherDisplay:10.37,2013-08-17 19:31:00,
2013-08-17 15:36:00,67.8,58.1,30.20,NNE,22,0.0,0.0,71,0.00,CLR,,0.00,WeatherDisplay:10.37,2013-08-17 19:36:00,
2013-08-17 15:41:00,67.8,58.1,30.21,NNE,22,0.0,0.0,71,0.00,CLR,,0.00,WeatherDisplay:10.37,2013-08-17 19:41:00,
2013-08-17 15:46:00,68.2,58.8,30.21,NNE,22,0.0,0.0,72,0.00,CLR,,0.00,WeatherDisplay:10.37,2013-08-17 19:46:00,
2013-08-17 15:51:00,67.8,58.5,30.21,NNE,22,0.0,0.0,72,0.00,CLR,,0.00,WeatherDisplay:10.37,2013-08-17 19:51:00,
2013-08-17 15:56:00,67.8,58.5,30.21,NNE,22,0.0,0.0,72,0.00,CLR,,0.00,WeatherDisplay:10.37,2013-08-17 19:56:00,
2013-08-17 16:01:00,67.8,58.5,30.21,NNE,22,0.0,0.0,72,0.00,CLR,,0.00,WeatherDisplay:10.37,2013-08-17 20:01:00,
2013-08-17 16:06:00,67.6,58.3,30.21,NNE,22,0.0,0.0,72,0.00,CLR,,0.00,WeatherDisplay:10.37,2013-08-17 20:06:00,
2013-08-17 16:11:00,67.5,58.1,30.21,NNE,22,0.0,0.0,72,0.00,CLR,,0.00,WeatherDisplay:10.37,2013-08-17 20:11:00,
2013-08-17 16:16:00,67.3,58.3,30.21,NNE,22,0.0,0.0,73,0.00,CLR,,0.00,WeatherDisplay:10.37,2013-08-17 20:16:00,
2013-08-17 16:21:00,67.1,58.2,30.21,NNE,22,0.0,0.0,73,0.00,CLR,,0.00,WeatherDisplay:10.37,2013-08-17 20:21:00,
2013-08-17 16:26:00,67.1,58.2,30.21,NNE,22,0.0,0.0,73,0.00,CLR,,0.00,WeatherDisplay:10.37,2013-08-17 20:26:00,
2013-08-17 16:31:00,66.9,58.4,30.21,NNE,22,0.0,0.0,74,0.00,CLR,,0.00,WeatherDisplay:10.37,2013-08-17 20:31:00,
2013-08-17 16:36:00,66.9,58.4,30.21,NNE,22,0.0,0.0,74,0.00,CLR,,0.00,WeatherDisplay:10.37,2013-08-17 20:36:00,
2013-08-17 16:41:00,66.7,58.6,30.21,NNE,22,0.0,0.0,75,0.00,CLR,,0.00,WeatherDisplay:10.37,2013-08-17 20:41:00,
2013-08-17 16:46:00,66.7,58.6,30.21,NNE,22,0.0,0.0,75,0.00,CLR,,0.00,WeatherDisplay:10.37,2013-08-17 20:46:00,
2013-08-17 16:51:00,66.7,58.6,30.21,NNE,22,0.0,0.0,75,0.00,CLR,,0.00,WeatherDisplay:10.37,2013-08-17 20:51:00,
2013-08-17 16:56:00,66.7,58.6,30.21,NNE,22,0.0,0.0,75,0.00,CLR,,0.00,WeatherDisplay:10.37,2013-08-17 20:56:00,
2013-08-17 17:01:00,66.7,58.6,30.21,NNE,22,0.0,0.0,75,0.00,CLR,,0.00,WeatherDisplay:10.37,2013-08-17 21:01:00,
2013-08-17 17:06:00,66.7,58.6,30.21,NNE,22,0.0,0.0,75,0.00,CLR,,0.00,WeatherDisplay:10.37,2013-08-17 21:06:00,
2013-08-17 17:11:00,66.7,58.9,30.21,NNE,22,0.0,0.0,76,0.00,CLR,,0.00,WeatherDisplay:10.37,2013-08-17 21:11:00,
2013-08-17 17:16:00,66.6,58.8,30.21,NNE,22,0.0,0.0,76,0.00,CLR,,0.00,WeatherDisplay:10.37,2013-08-17 21:16:00,
2013-08-17 17:21:00,66.4,58.6,30.21,NNE,22,0.0,0.0,76,0.00,CLR,,0.00,WeatherDisplay:10.37,2013-08-17 21:21:00,
2013-08-17 17:26:00,66.4,58.6,30.22,NNE,22,0.0,0.0,76,0.00,CLR,,0.00,WeatherDisplay:10.37,2013-08-17 21:26:00,
2013-08-17 17:32:00,66.0,58.2,30.21,NNE,22,0.0,0.0,76,0.00,CLR,,0.00,WeatherDisplay:10.37,2013-08-17 21:32:00,
2013-08-17 17:37:00,66.0,58.2,30.21,NNE,22,0.0,0.0,76,0.00,CLR,,0.00,WeatherDisplay:10.37,2013-08-17 21:37:00,
2013-08-17 17:42:00,66.0,58.6,30.21,NNE,22,0.0,0.0,77,0.00,CLR,,0.00,WeatherDisplay:10.37,2013-08-17 21:42:00,
2013-08-17 17:47:00,66.0,58.6,30.22,NNE,22,0.0,0.0,77,0.00,CLR,,0.00,WeatherDisplay:10.37,2013-08-17 21:47:00,
2013-08-17 17:52:00,66.0,58.6,30.21,NNE,22,0.0,0.0,77,0.00,CLR,,0.00,WeatherDisplay:10.37,2013-08-17 21:52:00,
2013-08-17 17:57:00,65.8,58.4,30.21,NNE,22,0.0,0.0,77,0.00,CLR,,0.00,WeatherDisplay:10.37,2013-08-17 21:57:00,
2013-08-17 18:02:00,65.8,58.8,30.21,NNE,22,0.0,0.0,78,0.00,CLR,,0.00,WeatherDisplay:10.37,2013-08-17 22:02:00,
2013-08-17 18:07:00,65.8,58.8,30.21,NNE,22,0.0,0.0,78,0.00,CLR,,0.00,WeatherDisplay:10.37,2013-08-17 22:07:00,
2013-08-17 18:12:00,65.8,58.8,30.21,NNE,22,0.0,0.0,78,0.00,CLR,,0.00,WeatherDisplay:10.37,2013-08-17 22:12:00,
2013-08-17 18:17:00,65.8,58.8,30.21,NNE,22,0.0,0.0,78,0.00,CLR,,0.00,WeatherDisplay:10.37,2013-08-17 22:17:00,
2013-08-17 18:22:00,65.8,58.8,30.21,NNE,22,0.0,0.0,78,0.00,CLR,,0.00,WeatherDisplay:10.37,2013-08-17 22:22:00,
2013-08-17 18:27:00,65.8,58.8,30.21,NNE,22,0.0,0.0,78,0.00,CLR,,0.00,WeatherDisplay:10.37,2013-08-17 22:27:00,
2013-08-17 18:32:00,65.7,58.6,30.21,NNE,22,0.0,0.0,78,0.00,CLR,,0.00,WeatherDisplay:10.37,2013-08-17 22:32:00,
2013-08-17 18:37:00,65.8,59.1,30.21,NNE,22,0.0,0.0,79,0.00,CLR,,0.00,WeatherDisplay:10.37,2013-08-17 22:37:00,
2013-08-17 18:42:00,65.5,58.8,30.21,NNE,22,0.0,0.0,79,0.00,CLR,,0.00,WeatherDisplay:10.37,2013-08-17 22:42:00,
2013-08-17 18:47:00,65.5,58.8,30.21,NNE,22,0.0,0.0,79,0.00,CLR,,0.00,WeatherDisplay:10.37,2013-08-17 22:47:00,
2013-08-17 18:52:00,65.3,58.6,30.21,NNE,22,0.0,0.0,79,0.00,CLR,,0.00,WeatherDisplay:10.37,2013-08-17 22:52:00,
2013-08-17 18:57:00,65.1,58.4,30.21,NNE,22,0.0,0.0,79,0.00,CLR,,0.00,WeatherDisplay:10.37,2013-08-17 22:57:00,
2013-08-17 19:02:00,64.9,58.3,30.21,NNE,22,0.0,0.0,79,0.00,CLR,,0.00,WeatherDisplay:10.37,2013-08-17 23:02:00,
2013-08-17 19:07:00,64.8,58.4,30.21,NNE,22,0.0,0.0,80,0.00,CLR,,0.00,WeatherDisplay:10.37,2013-08-17 23:07:00,
2013-08-17 19:12:00,64.8,58.4,30.21,NNE,22,0.0,0.0,80,0.00,CLR,,0.00,WeatherDisplay:10.37,2013-08-17 23:12:00,
2013-08-17 19:17:00,64.6,58.3,30.21,NNE,22,0.0,0.0,80,0.00,CLR,,0.00,WeatherDisplay:10.37,2013-08-17 23:17:00,
2013-08-17 19:22:00,64.6,58.6,30.21,NNE,22,0.0,0.0,81,0.00,CLR,,0.00,WeatherDisplay:10.37,2013-08-17 23:22:00,
2013-08-17 19:27:00,64.2,58.3,30.21,NNE,22,0.0,0.0,81,0.00,CLR,,0.00,WeatherDisplay:10.37,2013-08-17 23:27:00,
2013-08-17 19:32:00,64.2,58.3,30.21,NNE,22,0.0,0.0,81,0.00,CLR,,0.00,WeatherDisplay:10.37,2013-08-17 23:32:00,
2013-08-17 19:37:00,64.2,58.3,30.21,NNE,22,0.0,0.0,81,0.00,CLR,,0.00,WeatherDisplay:10.37,2013-08-17 23:37:00,
2013-08-17 19:42:00,64.0,58.4,30.21,NNE,22,0.0,0.0,82,0.00,CLR,,0.00,WeatherDisplay:10.37,2013-08-17 23:42:00,
2013-08-17 19:47:00,64.0,58.4,30.21,NNE,22,0.0,0.0,82,0.00,CLR,,0.00,WeatherDisplay:10.37,2013-08-17 23:47:00,
2013-08-17 19:52:00,63.7,58.1,30.21,NNE,22,0.0,0.0,82,0.00,CLR,,0.00,WeatherDisplay:10.37,2013-08-17 23:52:00,
2013-08-17 19:57:00,63.7,58.1,30.21,NNE,22,0.0,0.0,82,0.00,CLR,,0.00,WeatherDisplay:10.37,2013-08-17 23:57:00,
2013-08-17 20:02:00,63.5,57.9,30.21,NNE,22,0.0,0.0,82,0.00,CLR,,0.00,WeatherDisplay:10.37,2013-08-18 00:02:00,
2013-08-17 20:07:00,63.3,58.1,30.21,NNE,22,0.0,0.0,83,0.00,CLR,,0.00,WeatherDisplay:10.37,2013-08-18 00:07:00,
2013-08-17 20:12:00,63.1,57.9,30.21,NNE,22,0.0,0.0,83,0.00,CLR,,0.00,WeatherDisplay:10.37,2013-08-18 00:12:00,
2013-08-17 20:17:00,63.1,57.9,30.21,NNE,22,0.0,0.0,83,0.00,CLR,,0.00,WeatherDisplay:10.37,2013-08-18 00:17:00,
2013-08-17 20:22:00,63.1,58.2,30.21,NNE,22,0.0,0.0,84,0.00,CLR,,0.00,WeatherDisplay:10.37,2013-08-18 00:22:00,
2013-08-17 20:27:00,63.1,58.2,30.21,NNE,22,0.0,0.0,84,0.00,CLR,,0.00,WeatherDisplay:10.37,2013-08-18 00:27:00,
2013-08-17 20:32:00,63.0,58.0,30.21,NNE,22,0.0,0.0,84,0.00,CLR,,0.00,WeatherDisplay:10.37,2013-08-18 00:32:00,
2013-08-17 20:37:00,62.8,57.9,30.21,NNE,22,0.0,0.0,84,0.00,CLR,,0.00,WeatherDisplay:10.37,2013-08-18 00:37:00,
2013-08-17 20:42:00,62.8,57.9,30.21,NNE,22,0.0,0.0,84,0.00,CLR,,0.00,WeatherDisplay:10.37,2013-08-18 00:42:00,
2013-08-17 20:47:00,62.4,57.5,30.21,NNE,22,0.0,0.0,84,0.00,CLR,,0.00,WeatherDisplay:10.37,2013-08-18 00:47:00,
2013-08-17 20:52:00,62.4,57.5,30.21,NNE,22,0.0,0.0,84,0.00,CLR,,0.00,WeatherDisplay:10.37,2013-08-18 00:52:00,
2013-08-17 20:57:00,62.4,57.8,30.21,NNE,22,0.0,0.0,85,0.00,CLR,,0.00,WeatherDisplay:10.37,2013-08-18 00:57:00,
2013-08-17 21:02:00,62.4,57.8,30.21,NNE,22,0.0,0.0,85,0.00,CLR,,0.00,WeatherDisplay:10.37,2013-08-18 01:02:00,
2013-08-17 21:07:00,62.4,57.8,30.21,NNE,22,0.0,0.0,85,0.00,CLR,,0.00,WeatherDisplay:10.37,2013-08-18 01:07:00,
2013-08-17 21:12:00,62.4,57.8,30.21,NNE,22,0.0,0.0,85,0.00,CLR,,0.00,WeatherDisplay:10.37,2013-08-18 01:12:00,
2013-08-17 21:17:00,62.4,57.8,30.21,NNE,22,0.0,0.0,85,0.00,CLR,,0.00,WeatherDisplay:10.37,2013-08-18 01:17:00,
2013-08-17 21:22:00,62.4,57.8,30.21,NNE,22,0.0,0.0,85,0.00,CLR,,0.00,WeatherDisplay:10.37,2013-08-18 01:22:00,
2013-08-17 21:27:00,62.2,57.7,30.21,NNE,22,0.0,0.0,85,0.00,CLR,,0.00,WeatherDisplay:10.37,2013-08-18 01:27:00,
2013-08-17 21:32:00,62.2,58.0,30.21,NNE,22,0.0,0.0,86,0.00,CLR,,0.00,WeatherDisplay:10.37,2013-08-18 01:32:00,
2013-08-17 21:37:00,62.2,58.0,30.22,NNE,22,0.0,0.0,86,0.00,CLR,,0.00,WeatherDisplay:10.37,2013-08-18 01:37:00,
2013-08-17 21:42:00,62.1,57.8,30.21,NNE,22,0.0,0.0,86,0.00,CLR,,0.00,WeatherDisplay:10.37,2013-08-18 01:42:00,
2013-08-17 21:47:00,61.9,57.6,30.21,NNE,22,0.0,0.0,86,0.00,CLR,,0.00,WeatherDisplay:10.37,2013-08-18 01:47:00,
2013-08-17 21:52:00,61.9,57.6,30.21,NNE,22,0.0,0.0,86,0.00,CLR,,0.00,WeatherDisplay:10.37,2013-08-18 01:52:00,
2013-08-17 21:57:00,61.9,57.6,30.21,NNE,22,0.0,0.0,86,0.00,CLR,,0.00,WeatherDisplay:10.37,2013-08-18 01:57:00,
2013-08-17 22:02:00,61.9,57.6,30.21,NNE,22,0.0,0.0,86,0.00,CLR,,0.00,WeatherDisplay:10.37,2013-08-18 02:02:00,
2013-08-17 22:07:00,61.9,57.6,30.21,NNE,22,0.0,0.0,86,0.00,CLR,,0.00,WeatherDisplay:10.37,2013-08-18 02:07:00,
2013-08-17 22:12:00,61.9,57.6,30.22,NNE,22,0.0,0.0,86,0.00,CLR,,0.00,WeatherDisplay:10.37,2013-08-18 02:12:00,
2013-08-17 22:17:00,61.9,58.0,30.22,NNE,22,0.0,0.0,87,0.00,CLR,,0.00,WeatherDisplay:10.37,2013-08-18 02:17:00,
2013-08-17 22:22:00,61.9,58.0,30.22,NNE,22,0.0,0.0,87,0.00,CLR,,0.00,WeatherDisplay:10.37,2013-08-18 02:22:00,
2013-08-17 22:27:00,61.9,58.0,30.22,NNE,22,0.0,0.0,87,0.00,CLR,,0.00,WeatherDisplay:10.37,2013-08-18 02:27:00,
2013-08-17 22:32:00,61.9,58.0,30.22,NNE,22,0.0,0.0,87,0.00,CLR,,0.00,WeatherDisplay:10.37,2013-08-18 02:32:00,
2013-08-17 22:37:00,61.9,58.0,30.22,NNE,22,0.0,0.0,87,0.00,CLR,,0.00,WeatherDisplay:10.37,2013-08-18 02:37:00,
2013-08-17 22:42:00,61.9,58.0,30.22,NNE,22,0.0,0.0,87,0.00,CLR,,0.00,WeatherDisplay:10.37,2013-08-18 02:42:00,
2013-08-17 22:47:00,61.9,58.0,30.22,NNE,22,0.0,0.0,87,0.00,CLR,,0.00,WeatherDisplay:10.37,2013-08-18 02:47:00,
2013-08-17 22:52:00,61.9,58.0,30.21,NNE,22,0.0,0.0,87,0.00,CLR,,0.00,WeatherDisplay:10.37,2013-08-18 02:52:00,
2013-08-17 22:57:00,61.9,58.0,30.22,NNE,22,0.0,0.0,87,0.00,CLR,,0.00,WeatherDisplay:10.37,2013-08-18 02:57:00,
2013-08-17 23:02:00,61.9,58.0,30.22,NNE,22,0.0,0.0,87,0.00,CLR,,0.00,WeatherDisplay:10.37,2013-08-18 03:02:00,
2013-08-17 23:07:00,61.9,58.0,30.21,NNE,22,0.0,0.0,87,0.00,CLR,,0.00,WeatherDisplay:10.37,2013-08-18 03:07:00,
2013-08-17 23:12:00,61.9,58.0,30.21,NNE,22,0.0,0.0,87,0.00,CLR,,0.00,WeatherDisplay:10.37,2013-08-18 03:12:00,
2013-08-17 23:17:00,61.9,58.0,30.21,NNE,22,0.0,0.0,87,0.00,CLR,,0.00,WeatherDisplay:10.37,2013-08-18 03:17:00,
2013-08-17 23:22:00,61.9,58.0,30.20,NNE,22,0.0,0.0,87,0.00,CLR,,0.00,WeatherDisplay:10.37,2013-08-18 03:22:00,
2013-08-17 23:27:00,61.9,58.0,30.20,NNE,22,0.0,0.0,87,0.00,CLR,,0.00,WeatherDisplay:10.37,2013-08-18 03:27:00,
2013-08-17 23:32:00,61.9,58.0,30.20,NNE,22,0.0,0.0,87,0.00,CLR,,0.00,WeatherDisplay:10.37,2013-08-18 03:32:00,
2013-08-17 23:37:00,61.9,58.0,30.20,NNE,22,0.0,0.0,87,0.00,CLR,,0.00,WeatherDisplay:10.37,2013-08-18 03:37:00,
2013-08-17 23:42:00,61.9,58.0,30.20,NNE,22,0.0,0.0,87,0.00,CLR,,0.00,WeatherDisplay:10.37,2013-08-18 03:42:00,
2013-08-17 23:47:00,61.9,58.0,30.20,NNE,22,0.0,0.0,87,0.00,CLR,,0.00,WeatherDisplay:10.37,2013-08-18 03:47:00,
2013-08-17 23:52:00,61.9,58.0,30.20,NNE,22,0.0,0.0,87,0.00,CLR,,0.00,WeatherDisplay:10.37,2013-08-18 03:52:00,
2013-08-17 23:57:00,61.9,58.0,30.20,NNE,22,0.0,0.0,87,0.00,CLR,,0.00,WeatherDisplay:10.37,2013-08-18 03:57:00,